• En Colombia
  • Lista de países
  • Para 7 días
  • Temperatura del agua
  • El tiempo en el mapa
  • Informadores
  • user-avatar
    Iniciar sesión

    Tiempo cada hora Vishkov

    Hoy, 12 Diciembre, Jueves

    Tiempo Temperatura Precipitaciones Viento Presión Humedad
    00:00 -4°C° 0 mm 3 mps 735 mmHg 86%
    01:00 -4°C° 0 mm 3 mps 734 mmHg 86%
    02:00 -4°C° 0 mm 3 mps 734 mmHg 87%
    03:00 -4°C° 0 mm 3 mps 733 mmHg 88%
    04:00 -4°C° 0 mm 3 mps 733 mmHg 89%
    05:00 -4°C° 0 mm 3 mps 733 mmHg 89%
    06:00 -3°C° 0 mm 2 mps 733 mmHg 90%
    07:00 -3°C° 0 mm 2 mps 733 mmHg 91%
    08:00 -3°C° 0 mm 2 mps 733 mmHg 89%
    09:00 -2°C° 0 mm 2 mps 733 mmHg 87%
    10:00 -1°C° 0 mm 2 mps 733 mmHg 85%
    11:00 -1°C° 0 mm 2 mps 733 mmHg 84%
    12:00 +1°C° 0 mm 2 mps 733 mmHg 83%
    13:00 +1°C° 0 mm 2 mps 732 mmHg 82%
    14:00 +2°C° 0 mm 1 mps 732 mmHg 86%
    15:00 +2°C° 0 mm 1 mps 732 mmHg 89%
    16:00 0°C° 0 mm 0 mps 731 mmHg 93%
    17:00 0°C° 0.1 mm 0 mps 731 mmHg 95%
    18:00 0°C° 0.1 mm 0 mps 731 mmHg 97%
    19:00 0°C° 0.1 mm 0 mps 730 mmHg 98%
    20:00 0°C° 0.3 mm 0 mps 730 mmHg 98%
    21:00 0°C° 0.3 mm 0 mps 729 mmHg 98%
    22:00 0°C° 0.3 mm 0 mps 729 mmHg 98%
    23:00 0°C° 0.2 mm 0 mps 728 mmHg 98%

    Mañana, 13 Diciembre, Viernes

    Tiempo Temperatura Precipitaciones Viento Presión Humedad
    00:00 0°C° 0.2 mm 0 mps 727 mmHg 98%
    01:00 0°C° 0.2 mm 0 mps 727 mmHg 98%
    02:00 +2°C° 0.1 mm 1 mps 726 mmHg 98%
    03:00 +1°C° 0.1 mm 2 mps 725 mmHg 98%
    04:00 +1°C° 0.1 mm 2 mps 724 mmHg 98%
    05:00 0°C° 0 mm 3 mps 723 mmHg 97%
    06:00 -1°C° 0 mm 4 mps 722 mmHg 96%
    07:00 -1°C° 0 mm 5 mps 722 mmHg 96%
    08:00 0°C° 0 mm 5 mps 721 mmHg 93%
    09:00 -1°C° 0 mm 6 mps 720 mmHg 91%
    10:00 -1°C° 0 mm 7 mps 719 mmHg 89%
    11:00 -1°C° 0 mm 7 mps 719 mmHg 88%
    12:00 -1°C° 0 mm 6 mps 719 mmHg 86%
    13:00 -1°C° 0 mm 6 mps 718 mmHg 85%
    14:00 0°C° 0 mm 5 mps 719 mmHg 87%
    15:00 0°C° 0 mm 4 mps 719 mmHg 89%
    16:00 +1°C° 0 mm 3 mps 719 mmHg 91%
    17:00 0°C° 0 mm 3 mps 720 mmHg 91%
    18:00 0°C° 0 mm 3 mps 721 mmHg 91%
    19:00 +1°C° 0 mm 2 mps 721 mmHg 91%
    20:00 -1°C° 0 mm 2 mps 722 mmHg 91%
    21:00 -1°C° 0 mm 2 mps 722 mmHg 92%
    22:00 -1°C° 0 mm 2 mps 723 mmHg 92%
    23:00 -1°C° 0 mm 2 mps 723 mmHg 92%

    Pasado mañana, 14 Diciembre, Sábado

    Tiempo Temperatura Precipitaciones Viento Presión Humedad
    00:00 -1°C° 0 mm 2 mps 724 mmHg 92%
    01:00 -2°C° 0 mm 2 mps 724 mmHg 92%
    02:00 -2°C° 0 mm 2 mps 725 mmHg 91%
    03:00 -2°C° 0 mm 2 mps 725 mmHg 91%
    04:00 0°C° 0 mm 1 mps 725 mmHg 91%
    05:00 -1°C° 0 mm 2 mps 726 mmHg 91%
    06:00 -1°C° 0 mm 2 mps 727 mmHg 90%
    07:00 -1°C° 0 mm 2 mps 727 mmHg 90%
    08:00 +1°C° 0 mm 2 mps 728 mmHg 87%
    09:00 +1°C° 0 mm 2 mps 728 mmHg 85%
    10:00 +2°C° 0 mm 2 mps 729 mmHg 82%
    11:00 +2°C° 0 mm 3 mps 729 mmHg 78%
    12:00 +2°C° 0 mm 3 mps 729 mmHg 73%
    13:00 +3°C° 0 mm 4 mps 729 mmHg 69%
    14:00 +3°C° 0 mm 4 mps 729 mmHg 71%
    15:00 +1°C° 0 mm 4 mps 729 mmHg 73%
    16:00 +1°C° 0 mm 5 mps 730 mmHg 75%
    17:00 +1°C° 0 mm 4 mps 730 mmHg 78%
    18:00 +1°C° 0 mm 4 mps 731 mmHg 81%
    19:00 0°C° 0 mm 4 mps 731 mmHg 84%
    20:00 +1°C° 0 mm 3 mps 732 mmHg 86%
    21:00 0°C° 0 mm 3 mps 732 mmHg 87%
    22:00 +1°C° 0 mm 2 mps 733 mmHg 88%
    23:00 +1°C° 0 mm 2 mps 733 mmHg 88%

    15 Diciembre, Domingo

    Tiempo Temperatura Precipitaciones Viento Presión Humedad
    00:00 +1°C° 0 mm 3 mps 733 mmHg 88%
    01:00 +1°C° 0 mm 3 mps 733 mmHg 88%
    02:00 +1°C° 0.7 mm 3 mps 733 mmHg 89%
    03:00 +2°C° 0.7 mm 3 mps 733 mmHg 90%
    04:00 +2°C° 0.7 mm 3 mps 733 mmHg 90%
    05:00 +2°C° 0 mm 3 mps 734 mmHg 89%
    06:00 +2°C° 0 mm 3 mps 734 mmHg 87%
    07:00 +2°C° 0 mm 3 mps 734 mmHg 86%
    08:00 +2°C° 0 mm 3 mps 734 mmHg 82%
    09:00 +2°C° 0 mm 3 mps 734 mmHg 79%
    10:00 +3°C° 0 mm 4 mps 735 mmHg 75%
    11:00 +3°C° 0 mm 4 mps 735 mmHg 74%
    12:00 +4°C° 0 mm 4 mps 735 mmHg 73%
    13:00 +3°C° 0 mm 5 mps 735 mmHg 72%
    14:00 +3°C° 0 mm 5 mps 735 mmHg 75%
    15:00 +2°C° 0 mm 5 mps 735 mmHg 79%
    16:00 +3°C° 0 mm 4 mps 736 mmHg 83%
    17:00 +1°C° 0 mm 4 mps 737 mmHg 85%
    18:00 +2°C° 0 mm 3 mps 738 mmHg 88%
    19:00 +3°C° 0 mm 2 mps 739 mmHg 90%
    20:00 +3°C° 0 mm 2 mps 739 mmHg 90%
    21:00 +3°C° 0 mm 2 mps 740 mmHg 90%
    22:00 +3°C° 0 mm 2 mps 741 mmHg 90%
    23:00 +2°C° 0 mm 2 mps 741 mmHg 91%

    16 Diciembre, Lunes

    Tiempo Temperatura Precipitaciones Viento Presión Humedad
    00:00 +3°C° 0 mm 1 mps 741 mmHg 91%
    01:00 +3°C° 0 mm 1 mps 741 mmHg 92%
    02:00 +3°C° 0 mm 1 mps 741 mmHg 92%
    03:00 +3°C° 0 mm 1 mps 741 mmHg 92%
    04:00 +3°C° 0 mm 1 mps 741 mmHg 92%
    05:00 +3°C° 0 mm 1 mps 741 mmHg 92%
    06:00 +3°C° 0 mm 1 mps 741 mmHg 92%
    07:00 +3°C° 0 mm 1 mps 741 mmHg 92%
    08:00 +4°C° 0 mm 1 mps 741 mmHg 89%
    09:00 +4°C° 0 mm 1 mps 741 mmHg 87%
    10:00 +5°C° 0 mm 1 mps 741 mmHg 85%
    11:00 +4°C° 0 mm 2 mps 740 mmHg 85%
    12:00 +4°C° 0 mm 3 mps 740 mmHg 85%
    13:00 +5°C° 0 mm 5 mps 739 mmHg 85%
    14:00 +4°C° 0 mm 4 mps 739 mmHg 87%
    15:00 +4°C° 0 mm 4 mps 739 mmHg 88%
    16:00 +4°C° 0 mm 4 mps 739 mmHg 90%
    17:00 +4°C° 0 mm 3 mps 739 mmHg 90%
    18:00 +5°C° 0 mm 2 mps 739 mmHg 89%
    19:00 +5°C° 0 mm 2 mps 739 mmHg 89%
    20:00 +5°C° 0 mm 2 mps 739 mmHg 90%
    21:00 +4°C° 0 mm 2 mps 739 mmHg 90%
    22:00 +4°C° 0 mm 2 mps 739 mmHg 91%
    23:00 +6°C° 0 mm 1 mps 738 mmHg 91%

    17 Diciembre, Martes

    Tiempo Temperatura Precipitaciones Viento Presión Humedad
    00:00 +6°C° 0 mm 1 mps 738 mmHg 90%
    01:00 +6°C° 0 mm 1 mps 738 mmHg 90%
    02:00 +6°C° 0 mm 1 mps 738 mmHg 91%
    03:00 +6°C° 0 mm 1 mps 738 mmHg 92%
    04:00 +6°C° 0 mm 1 mps 737 mmHg 92%
    05:00 +6°C° 0 mm 1 mps 737 mmHg 93%
    06:00 +6°C° 0 mm 1 mps 737 mmHg 93%
    07:00 +6°C° 0 mm 1 mps 737 mmHg 94%
    08:00 +6°C° 0 mm 1 mps 737 mmHg 92%
    09:00 +7°C° 0 mm 1 mps 738 mmHg 91%
    10:00 +7°C° 0 mm 1 mps 738 mmHg 90%
    11:00 +7°C° 0 mm 1 mps 737 mmHg 89%
    12:00 +8°C° 0 mm 1 mps 737 mmHg 88%
    13:00 +8°C° 0 mm 1 mps 737 mmHg 87%
    14:00 +8°C° 0 mm 1 mps 737 mmHg 89%
    15:00 +6°C° 0 mm 0 mps 737 mmHg 91%
    16:00 +6°C° 0 mm 0 mps 737 mmHg 93%
    17:00 +6°C° 0 mm 0 mps 737 mmHg 94%
    18:00 +5°C° 0 mm 0 mps 737 mmHg 94%
    19:00 +6°C° 0 mm 1 mps 737 mmHg 95%
    20:00 +6°C° 0 mm 1 mps 738 mmHg 95%
    21:00 +5°C° 0 mm 1 mps 738 mmHg 95%
    22:00 +5°C° 0 mm 1 mps 738 mmHg 95%
    23:00 +5°C° 0 mm 1 mps 738 mmHg 94%
    Mostrar más